Location: Fort Wayne
(41.1310°N, 85.1290°W)
Time: 23:18:24
(UTC-04:00)

BREEZE-M DEB (TANK) - Visible Passes

Search period start: 26 April 2017 00:00
Search period end: 06 May 2017 00:00
Orbit: 275 x 13273 km, 49.6° (Epoch: 25 April)

Date Brightness Start Highest point End Pass type
(mag) Time Alt. Az. Time Alt. Az. Time Alt. Az.
26 Apr 9.1 19:47:32 10° NW 20:31:39 54° WSW 22:11:47 10° S visible
27 Apr 9.3 20:54:46 10° WNW 21:38:48 37° WSW 23:04:36 10° SSW visible
28 Apr 9.6 22:06:16 10° WNW 22:42:43 22° W 23:42:19 10° SW visible
29 Apr 9.0 18:36:28 10° WNW 19:15:30 65° WSW 21:02:44 10° S visible
30 Apr 9.2 19:42:14 10° WNW 20:24:47 48° WSW 22:01:20 10° SSW visible
01 May 9.4 20:50:02 10° WNW 21:31:10 32° WSW 22:50:27 10° SW visible
02 May 9.8 22:04:18 10° WNW 22:34:23 17° W 23:20:10 10° WSW visible
04 May 9.3 19:36:39 10° WNW 20:17:27 43° WSW 21:49:32 10° SSW visible
05 May 9.6 20:45:19 10° WNW 21:23:08 27° W 22:34:05 10° SW visible
